Wetbulb
58.82 58.77 58.80 58.92 59.05 59.09 59.20 59.24 59.32 59.38 59.22 59.17 57.90 59.04 58.70 58.82 58.68 57.81 53.61 58.78 59.75 72.05 71.60 61.49 63.06 60.32 60.96 59.63 58.82 57.96 52.82 51.70 54.74 56.26 58.92 62.81 61.89 64.90 65.56 63.93 65.74 66.04 65.27 68.07 71.77
58.25 58.35 58.48 58.58 58.72 58.92 58.79 58.90 58.88 58.71 58.37 58.14 57.79 58.68 58.45 59.02 57.23 55.09 64.38 70.26 70.90 73.03 57.29 60.16 59.75 61.26 57.33 55.80 55.57 52.74 49.51 54.12 59.70 61.29 58.66 61.83 62.01 62.17 60.96 60.86 62.30 65.71 70.71 71.56 72.44
57.92 57.79 58.05 58.20 58.58 58.61 58.74 58.68 58.54 58.10 57.61 57.98 57.86 58.77 58.72 58.54 57.90 60.67 71.53 72.12 72.05 69.33 57.01 60.22 59.57 58.80 54.92 53.36 53.10 53.88 53.38 57.86 59.38 61.87 61.66 59.98 60.24 61.63 60.07 57.02 59.67 64.84 68.60 70.37 70.84
57.45 57.67 57.85 58.04 58.13 58.29 58.31 58.33 58.06 57.65 57.50 58.33 57.93 58.71 58.59 56.97 53.92 64.57 72.88 72.32 71.89 61.27 56.59 55.46 56.10 52.94 50.00 49.27 52.74 49.72 55.98 58.48 60.42 62.26 61.84 60.00 60.64 60.93 61.61 61.01 63.72 70.15 70.77 70.41 69.82
56.94 57.08 57.35 57.35 57.62 57.79 57.81 57.81 57.56 57.27 57.48 58.71 58.63 58.84 56.46 55.56 58.56 66.98 71.38 70.78 61.67 57.28 54.39 54.43 56.20 53.69 48.86 49.99 51.73 50.25 52.92 56.29 59.23 61.17 60.43 61.10 60.53 61.51 62.08 64.48 65.97 71.50 70.73 69.78 70.23
56.49 56.55 56.67 56.84 57.12 57.14 57.33 57.27 57.26 56.92 57.21 58.49 58.86 57.96 56.74 53.90 64.38 67.03 61.80 59.26 55.99 55.48 55.39 57.32 56.14 54.79 51.68 50.83 50.18 52.76 54.74 56.12 57.53 58.87 60.24 58.00 59.50 60.38 63.21 64.25 68.10 70.01 69.27 69.27 70.01
55.96 56.04 56.25 56.39 56.64 56.79 57.15 56.88 56.70 56.62 57.02 58.31 58.40 58.27 57.33 53.26 62.06 62.87 55.66 53.74 54.44 54.46 56.04 58.55 58.44 53.14 52.75 51.93 56.56 56.46 52.58 54.52 56.74 58.02 57.29 58.59 55.37 53.99 62.52 63.32 67.35 68.09 67.94 68.18 69.62
55.59 55.69 55.81 55.92 56.10 56.17 56.26 56.17 56.05 56.69 56.87 58.08 58.25 57.28 50.89 62.98 59.29 58.00 54.03 55.09 55.17 53.82 57.60 60.34 59.49 53.52 52.53 56.18 55.98 53.22 50.96 48.32 55.78 57.43 58.71 56.73 49.93 57.29 63.07 64.21 62.92 63.52 62.77 63.62 63.63
55.12 55.28 55.32 55.64 55.72 55.84 55.38 55.34 57.14 57.11 57.76 58.69 56.28 55.89 55.10 63.60 58.31 57.49 56.02 57.08 56.13 55.22 57.37 60.82 56.23 52.82 54.95 50.66 46.48 47.51 44.74 50.10 52.59 57.57 57.40 56.94 52.35 58.67 61.52 63.42 58.55 59.77 60.94 61.20 64.23
55.22 55.15 55.07 55.17 55.19 55.09 54.52 55.94 57.88 57.37 58.54 60.62 60.77 52.45 55.60 58.71 58.57 58.69 58.40 59.35 57.53 55.94 54.67 54.87 51.90 49.14 48.08 46.01 41.00 45.39 48.05 50.72 50.96 55.15 55.81 54.07 53.38 56.02 60.19 61.40 59.66 60.55 62.23 62.23 64.71
54.79 54.75 54.66 54.71 54.44 54.19 51.38 49.46 49.21 50.11 55.63 55.02 52.26 54.45 56.56 60.99 60.52 57.94 59.70 58.50 57.26 52.94 46.74 50.53 46.71 43.64 46.63 48.97 50.85 50.09 48.30 50.37 53.19 56.35 54.34 52.09 54.08 56.74 60.47 60.80 58.98 58.26 59.44 60.45 62.93
54.30 54.40 54.44 54.11 53.44 53.35 49.56 50.48 49.76 50.46 45.57 52.50 54.45 54.96 58.04 58.05 54.71 57.15 57.93 54.03 53.27 48.43 49.86 46.68 44.03 49.65 52.10 51.90 50.90 49.71 46.85 46.71 52.01 56.54 53.87 53.00 52.55 56.55 58.21 58.33 57.20 57.40 58.34 59.73 62.18
53.99 53.87 53.68 53.15 52.35 52.01 50.59 51.93 55.06 51.27 44.29 49.62 51.94 51.46 51.79 53.85 52.81 55.82 55.34 54.55 52.16 49.62 48.93 45.14 48.23 52.72 51.06 49.29 47.90 45.20 43.43 45.30 45.76 50.38 53.79 51.74 49.15 53.55 56.31 57.60 57.28 58.88 60.72 62.37 62.94
53.33 53.23 52.85 51.59 49.61 48.70 50.52 54.00 53.65 52.13 39.91 46.23 48.32 51.41 52.47 53.22 50.21 60.64 57.51 55.02 51.45 49.17 50.07 48.37 52.64 51.67 50.57 48.69 47.72 40.92 48.45 48.32 47.45 45.93 41.07 49.32 39.19 48.44 51.99 52.24 56.14 58.00 59.29 60.47 62.04
52.61 52.57 52.25 51.41 44.76 48.42 52.69 52.73 53.38 49.95 32.65 50.74 48.81 54.49 51.59 50.18 51.32 53.12 58.82 53.37 49.40 50.10 49.36 48.11 50.78 49.82 49.71 50.52 50.22 45.78 49.07 47.35 48.51 44.83 41.84 44.81 40.21 43.42 51.50 50.51 52.61 57.71 59.65 60.12 63.76
51.91 51.76 51.44 48.79 45.77 50.16 51.78 49.71 49.32 40.35 34.05 48.19 49.76 48.60 47.71 48.81 50.66 52.27 54.28 54.57 54.11 50.58 50.46 49.98 54.33 52.49 51.10 53.20 51.89 51.73 48.76 46.09 44.86 41.11 37.22 41.72 41.14 41.08 48.90 51.33 53.52 56.64 59.05 59.01 63.80
50.97 50.58 49.29 49.62 43.62 48.40 48.58 46.91 37.59 34.50 47.04 45.10 44.64 45.84 45.27 45.81 47.77 48.97 50.50 48.68 46.61 42.47 42.50 48.30 50.30 52.92 54.13 49.16 49.86 48.09 41.22 35.85 35.76 35.93 36.31 42.89 44.26 45.41 53.16 55.48 56.46 56.38 58.06 59.17 60.30
49.99 50.19 48.67 49.16 47.09 48.20 47.58 41.43 32.25 42.77 42.57 47.45 46.89 46.15 44.14 46.32 46.30 47.60 48.58 46.54 49.48 47.96 43.90 42.61 42.29 50.15 53.35 49.34 46.38 44.45 42.25 37.13 32.84 34.38 38.57 44.98 41.46 47.98 56.64 58.26 59.79 58.37 60.01 66.88 65.82
49.52 45.69 46.35 48.86 50.47 47.92 43.64 34.82 36.40 42.02 47.65 46.09 45.57 43.05 42.88 46.88 46.85 46.04 45.89 48.32 50.50 49.60 44.24 42.01 44.15 53.18 53.63 52.37 49.91 45.48 42.17 45.01 39.44 37.30 36.92 39.93 46.52 53.05 55.89 57.73 63.96 64.53 64.32 63.61 63.00
43.59 43.85 45.09 52.15 50.45 46.64 40.41 37.62 41.57 46.62 46.76 45.55 41.61 43.78 40.81 43.49 42.58 42.74 43.76 47.50 50.29 53.27 49.56 45.91 41.66 49.90 52.43 52.82 50.42 47.76 47.83 40.81 38.22 34.15 32.09 38.69 44.67 44.65 51.25 53.72 63.06 63.78 61.40 61.47 63.34
43.82 43.38 50.32 52.74 48.74 42.62 36.06 38.15 43.84 47.23 47.71 44.39 42.02 41.79 42.18 42.89 42.18 40.60 42.66 48.21 49.77 49.49 51.63 46.53 43.98 47.56 49.87 46.87 45.03 45.85 43.13 41.55 41.01 38.93 35.06 35.15 42.04 51.23 53.85 55.31 57.15 59.81 62.67 62.16 62.88
40.69 39.58 49.87 51.80 40.93 37.90 37.61 43.67 46.04 45.68 47.53 46.17 45.68 44.08 43.03 43.73 41.38 42.05 43.65 47.37 51.40 51.18 47.23 48.70 43.49 41.46 45.38 50.23 51.97 48.77 46.15 42.52 38.09 36.96 39.84 40.90 43.88 53.20 53.51 57.00 58.98 60.34 63.92 64.65 64.74
37.02 41.16 50.76 47.99 36.26 35.66 39.60 44.05 45.39 45.07 45.01 45.11 44.53 46.33 45.36 42.00 38.93 43.83 46.61 51.23 51.41 52.47 46.96 47.71 41.74 38.49 41.98 44.66 48.42 46.16 46.45 44.21 41.90 40.52 38.62 37.59 42.09 55.39 55.76 55.40 58.40 59.57 58.58 63.53 65.04
39.39 39.80 44.02 45.38 42.70 40.15 39.24 41.96 43.55 49.22 47.20 47.06 45.44 45.04 43.17 41.10 41.10 41.64 44.04 49.12 51.02 51.73 59.94 53.46 41.84 41.84 39.72 42.09 46.93 47.24 49.78 48.30 43.86 38.84 39.39 40.92 46.33 51.48 54.01 53.38 56.40 57.86 57.26 61.86 63.87
41.72 40.88 41.69 37.70 40.80 41.97 41.54 44.83 43.64 43.27 47.05 47.51 45.55 44.76 43.09 37.09 40.07 40.46 43.40 46.12 49.52 55.38 50.81 48.25 42.60 44.69 46.34 50.23 51.29 50.69 50.14 51.01 45.14 44.86 42.76 44.31 49.30 52.62 53.70 53.82 55.89 57.22 57.05 60.90 58.64
39.79 39.47 40.97 38.99 41.40 40.27 40.60 41.53 45.00 46.60 45.38 44.41 43.10 46.83 45.00 40.21 42.27 41.25 42.44 41.00 45.69 51.33 48.19 47.37 42.21 47.61 45.35 50.83 51.74 50.69 52.11 52.80 53.05 52.97 46.95 50.52 49.53 53.76 54.48 56.70 57.28 56.30 58.52 59.51 60.10
42.38 42.32 40.27 39.54 37.34 37.05 38.84 44.22 45.91 48.00 49.36 50.98 50.09 45.56 44.47 44.77 46.06 48.79 47.80 46.50 46.81 48.61 48.60 48.98 44.03 42.82 40.68 48.22 49.09 44.60 49.30 52.19 52.56 53.52 51.23 46.77 51.17 56.03 54.68 57.34 58.24 56.73 58.07 58.03 59.67
MSLP
1016.83 1016.50 1016.06 1015.49 1015.34 1015.06 1014.56 1014.14 1013.97 1013.60 1013.22 1013.08 1012.92 1012.58 1012.26 1012.04 1011.66 1011.61 1010.43 1007.85 1007.84 1008.02 1008.25 1008.25 1008.44 1008.12 1008.23 1008.19 1007.71 1007.93 1009.51 1009.95 1009.21 1008.81 1007.92 1007.80 1007.38 1007.48 1007.01 1007.39 1007.64 1007.56 1007.68 1007.66 1008.57
1016.83 1016.40 1015.99 1015.48 1015.27 1014.90 1014.45 1014.20 1013.87 1013.46 1013.13 1012.94 1012.72 1012.44 1012.10 1011.92 1011.40 1010.00 1007.11 1007.00 1007.20 1007.77 1008.11 1008.07 1008.03 1008.10 1008.29 1007.98 1007.75 1008.04 1008.97 1008.47 1007.35 1006.63 1006.53 1006.34 1005.85 1006.62 1006.96 1007.00 1007.51 1007.67 1007.96 1008.15 1008.83
1016.96 1016.58 1016.18 1015.69 1015.23 1014.85 1014.46 1014.15 1013.76 1013.39 1013.04 1012.79 1012.55 1012.24 1012.03 1011.93 1010.83 1007.52 1006.34 1006.73 1007.02 1007.38 1007.52 1007.63 1007.66 1007.90 1008.03 1007.67 1007.28 1007.36 1007.38 1006.78 1006.22 1005.62 1004.81 1005.77 1005.52 1005.27 1006.01 1006.94 1007.00 1007.07 1008.19 1008.73 1009.20
1016.99 1016.64 1016.23 1015.74 1015.28 1014.83 1014.41 1014.01 1013.64 1013.34 1012.98 1012.68 1012.42 1012.09 1011.87 1011.64 1009.38 1006.57 1006.16 1006.68 1007.01 1007.36 1007.64 1007.61 1007.60 1007.71 1007.43 1007.28 1006.80 1006.74 1006.18 1005.99 1005.11 1004.06 1004.73 1004.81 1004.63 1004.96 1004.62 1004.88 1005.11 1006.68 1007.88 1008.73 1009.30
1017.07 1016.68 1016.18 1015.58 1015.24 1014.77 1014.31 1013.94 1013.52 1013.25 1012.98 1012.58 1012.34 1012.09 1011.83 1010.59 1007.60 1006.28 1006.54 1006.98 1007.18 1007.43 1007.43 1007.60 1007.56 1007.35 1007.20 1006.68 1006.42 1006.19 1005.35 1004.81 1004.16 1004.02 1004.19 1003.87 1004.14 1004.54 1004.85 1004.77 1005.89 1006.91 1007.78 1008.86 1009.57
1017.12 1016.80 1016.26 1015.59 1015.23 1014.68 1014.23 1013.82 1013.32 1013.04 1012.82 1012.51 1012.24 1012.21 1011.52 1009.03 1005.85 1006.00 1006.49 1007.09 1007.13 1007.25 1007.26 1007.32 1007.09 1006.93 1007.03 1006.86 1006.88 1005.97 1005.46 1004.74 1004.25 1003.86 1003.76 1003.53 1004.34 1004.46 1004.72 1005.71 1006.45 1007.22 1007.95 1008.81 1009.44
1017.06 1016.70 1016.11 1015.53 1015.10 1014.51 1014.09 1013.55 1013.08 1012.85 1012.66 1012.48 1012.26 1012.03 1010.75 1007.09 1005.60 1006.02 1006.41 1006.69 1006.66 1006.84 1006.90 1006.58 1006.54 1006.80 1006.93 1006.85 1006.37 1005.97 1005.61 1004.49 1004.04 1003.58 1003.55 1003.33 1004.68 1004.50 1005.55 1005.96 1007.14 1008.85 1009.87 1010.58 1009.03
1017.04 1016.61 1015.99 1015.42 1014.83 1014.24 1013.83 1013.09 1012.58 1012.45 1012.42 1012.35 1012.27 1011.80 1009.08 1005.61 1005.63 1006.03 1006.23 1006.36 1006.38 1006.56 1006.52 1006.18 1006.13 1006.47 1006.80 1006.90 1006.55 1006.32 1006.14 1005.64 1003.64 1003.23 1003.55 1003.43 1004.56 1005.27 1006.23 1007.06 1008.64 1009.40 1010.23 1010.61 1012.15
1016.97 1016.56 1015.94 1015.21 1014.43 1013.97 1013.33 1012.55 1011.87 1011.98 1012.17 1012.20 1012.15 1011.32 1008.02 1005.92 1005.92 1005.57 1005.67 1006.00 1006.19 1006.36 1006.43 1006.05 1005.95 1006.61 1006.96 1007.54 1007.75 1007.38 1006.92 1005.89 1004.24 1003.48 1003.51 1003.75 1004.59 1005.66 1007.07 1008.00 1008.63 1008.90 1008.63 1010.78 1012.16
1016.96 1016.50 1015.73 1014.94 1014.20 1013.72 1012.94 1012.17 1011.85 1011.91 1012.10 1011.89 1011.43 1010.61 1007.40 1005.41 1004.80 1005.08 1005.31 1005.51 1006.02 1006.23 1006.43 1006.22 1006.75 1007.32 1007.91 1008.29 1008.20 1007.56 1007.21 1006.30 1005.17 1003.67 1003.88 1004.44 1004.53 1005.20 1007.02 1008.43 1008.48 1008.76 1008.72 1009.66 1010.19
1017.29 1016.50 1015.68 1014.70 1014.11 1013.77 1012.79 1012.18 1012.27 1011.56 1011.10 1010.04 1009.38 1008.14 1006.16 1004.63 1004.19 1004.71 1004.97 1005.43 1005.78 1006.21 1006.94 1006.93 1007.71 1007.58 1007.69 1007.66 1007.08 1006.98 1006.90 1006.35 1004.77 1003.82 1004.30 1004.44 1005.41 1005.55 1006.75 1007.67 1008.95 1009.41 1009.22 1009.52 1010.69
1017.22 1016.31 1015.52 1014.59 1013.73 1013.43 1013.32 1012.51 1011.01 1010.49 1009.76 1008.32 1007.47 1006.94 1005.67 1005.22 1005.11 1004.46 1004.71 1005.67 1006.01 1006.71 1007.13 1007.66 1007.38 1006.60 1006.77 1006.83 1006.84 1006.41 1006.10 1005.72 1004.60 1003.92 1004.65 1004.59 1005.74 1007.11 1008.15 1008.14 1008.47 1008.91 1009.50 1009.58 1009.69
1017.10 1016.40 1015.52 1014.46 1013.33 1012.89 1012.73 1011.45 1010.13 1009.71 1009.83 1006.98 1005.68 1004.98 1004.39 1004.68 1004.71 1004.33 1004.64 1005.30 1005.93 1006.71 1007.15 1007.42 1005.95 1005.91 1006.23 1005.89 1005.95 1005.58 1005.53 1005.06 1004.81 1004.16 1004.65 1005.44 1006.26 1006.92 1008.24 1008.86 1009.45 1009.63 1009.94 1010.28 1009.40
1017.18 1016.47 1015.71 1014.58 1013.37 1013.48 1011.93 1010.69 1010.10 1009.71 1009.96 1006.50 1004.64 1002.98 1003.18 1003.59 1003.66 1003.37 1003.86 1004.87 1005.81 1006.18 1006.82 1006.72 1005.53 1005.41 1005.22 1005.32 1004.99 1005.12 1004.56 1004.77 1004.96 1005.12 1005.59 1005.89 1007.37 1007.64 1008.37 1008.64 1009.18 1008.93 1010.12 1009.94 1009.36
1017.09 1016.58 1016.01 1015.71 1015.07 1013.69 1011.85 1010.80 1010.16 1010.12 1008.96 1004.46 1002.99 1001.45 1001.78 1002.80 1002.79 1002.90 1003.14 1004.34 1005.24 1005.74 1006.35 1005.65 1004.89 1004.74 1004.60 1004.18 1003.96 1004.19 1004.13 1004.73 1005.07 1005.87 1006.42 1006.60 1007.43 1007.45 1007.95 1008.45 1008.25 1008.53 1009.54 1009.21 1008.77
1016.57 1016.14 1015.97 1015.36 1015.02 1012.66 1011.77 1010.96 1010.55 1010.80 1007.66 1004.00 1002.29 1002.04 1002.47 1002.80 1002.56 1002.86 1003.55 1004.15 1004.71 1005.62 1005.68 1005.43 1004.55 1004.33 1003.56 1003.15 1003.23 1003.37 1004.23 1005.30 1006.21 1007.08 1007.61 1007.19 1007.72 1007.22 1007.37 1006.68 1006.61 1007.40 1008.08 1008.74 1009.25
1015.94 1015.29 1015.68 1015.11 1013.35 1012.03 1011.79 1011.60 1011.83 1010.21 1006.73 1004.48 1003.28 1002.61 1002.62 1002.91 1002.96 1003.25 1004.16 1004.78 1005.26 1005.98 1006.21 1005.45 1004.52 1003.64 1003.33 1003.20 1002.80 1003.42 1005.44 1006.78 1008.07 1008.51 1008.67 1007.60 1007.88 1006.93 1006.54 1006.24 1006.38 1006.61 1007.07 1007.23 1007.96
1015.44 1014.44 1013.76 1013.47 1012.53 1012.48 1012.46 1012.90 1011.94 1008.96 1006.81 1005.04 1004.30 1003.36 1003.45 1003.13 1003.03 1003.48 1004.22 1005.01 1005.21 1005.47 1006.21 1005.95 1004.63 1003.03 1002.33 1002.41 1002.71 1003.74 1005.40 1007.13 1008.48 1009.45 1009.15 1007.88 1007.79 1006.72 1006.52 1006.24 1005.42 1006.02 1007.07 1007.17 1008.48
1014.81 1013.76 1013.40 1011.58 1012.04 1012.77 1013.08 1013.03 1010.81 1008.80 1006.98 1005.95 1004.79 1004.24 1003.79 1003.37 1003.36 1003.74 1004.06 1004.27 1004.23 1004.75 1005.70 1005.54 1004.39 1002.63 1002.26 1002.33 1002.69 1003.43 1004.86 1005.54 1007.65 1009.15 1009.39 1008.53 1008.02 1006.99 1006.05 1005.78 1006.27 1006.40 1007.16 1008.10 1008.95
1015.31 1014.26 1012.27 1010.31 1011.37 1012.43 1013.03 1011.93 1010.14 1008.22 1007.32 1006.53 1005.91 1005.19 1005.22 1004.53 1004.09 1004.04 1003.66 1003.19 1003.31 1003.55 1003.92 1004.60 1004.68 1002.71 1002.03 1002.06 1001.85 1002.29 1003.64 1005.66 1007.85 1009.23 1009.68 1009.14 1008.46 1008.08 1007.66 1007.24 1006.88 1007.39 1008.00 1008.54 1008.98
1015.16 1014.06 1010.51 1010.07 1011.11 1012.48 1012.76 1011.44 1009.45 1008.04 1007.70 1007.30 1006.60 1006.19 1005.49 1005.33 1005.03 1004.49 1003.78 1002.85 1002.10 1002.37 1003.20 1004.06 1004.65 1002.99 1002.88 1002.44 1002.29 1002.52 1003.56 1005.19 1006.89 1008.27 1009.31 1009.43 1008.56 1007.13 1006.56 1007.24 1007.11 1008.10 1009.01 1010.24 1010.67
1016.02 1014.12 1010.77 1010.15 1011.86 1012.60 1012.31 1010.79 1009.51 1008.22 1007.76 1007.58 1006.52 1006.06 1005.27 1005.05 1004.85 1004.49 1003.44 1002.91 1001.73 1001.09 1002.74 1002.92 1004.12 1004.15 1003.17 1002.14 1001.95 1002.39 1003.08 1004.21 1006.55 1007.98 1008.63 1008.56 1008.05 1007.05 1007.53 1007.10 1007.48 1008.11 1008.29 1009.02 1009.85
1017.27 1014.63 1011.00 1010.72 1011.92 1012.65 1011.79 1010.62 1009.56 1008.59 1007.89 1007.46 1006.70 1005.90 1005.41 1005.19 1005.15 1004.49 1003.34 1002.17 1002.28 1001.90 1001.71 1002.26 1003.90 1004.35 1003.46 1002.61 1001.84 1002.03 1002.47 1003.34 1004.85 1006.29 1007.62 1008.29 1007.97 1007.38 1007.45 1008.16 1008.81 1009.54 1009.52 1009.44 1009.02
1017.47 1015.55 1013.19 1012.37 1012.11 1012.30 1012.05 1010.97 1009.75 1008.26 1007.56 1007.03 1006.52 1006.04 1005.60 1005.25 1005.26 1004.76 1003.87 1002.73 1002.29 1001.83 1001.42 1001.65 1003.01 1003.58 1003.62 1002.87 1002.63 1002.30 1002.08 1002.53 1003.85 1005.73 1006.28 1006.70 1007.39 1007.88 1008.28 1008.74 1009.69 1010.01 1009.93 1009.09 1008.94
1017.36 1016.76 1015.84 1014.92 1013.73 1013.29 1012.36 1011.24 1009.94 1008.87 1007.63 1006.86 1006.27 1005.86 1005.75 1005.68 1005.52 1005.23 1004.15 1003.60 1002.46 1002.08 1001.81 1002.45 1003.44 1003.25 1003.22 1002.85 1002.44 1002.27 1002.30 1002.60 1003.55 1003.87 1004.78 1005.16 1006.15 1006.75 1007.42 1008.58 1009.74 1009.55 1009.93 1009.59 1008.51
1018.19 1018.04 1017.11 1016.06 1014.74 1013.75 1012.42 1011.36 1010.21 1009.06 1008.19 1007.14 1007.13 1006.03 1005.33 1005.52 1005.46 1005.28 1004.85 1004.35 1003.51 1002.72 1002.74 1003.03 1003.71 1003.60 1003.44 1002.90 1002.61 1002.33 1001.97 1002.15 1002.03 1002.40 1003.64 1004.10 1005.49 1005.55 1007.66 1008.95 1009.21 1009.56 1009.33 1008.81 1010.24
1019.10 1018.69 1018.36 1016.95 1015.64 1014.60 1013.15 1012.36 1011.04 1010.09 1008.68 1008.01 1007.26 1006.39 1005.45 1004.79 1004.34 1004.39 1004.31 1004.29 1003.81 1003.59 1003.70 1004.09 1004.32 1004.80 1004.70 1003.86 1003.07 1002.75 1002.12 1001.98 1002.24 1002.48 1003.19 1003.67 1004.12 1005.20 1007.46 1008.44 1009.09 1009.66 1009.42 1008.87 1010.17
Wind_Speed
14 14 14 14 14 14 14 15 15 13 13 12 11 9 10 10 13 3 6 9 7 11 4 3 4 4 1 3 3 4 5 3 5 5 4 19 13 17 2 6 4 4 3 10 16
15 15 15 15 15 15 15 14 15 14 14 13 11 10 9 10 3 6 9 8 8 13 5 7 5 5 2 3 2 4 3 9 6 9 8 8 14 17 8 5 3 2 3 18 15
15 15 15 15 16 16 15 14 14 14 14 13 12 10 8 6 2 6 2 7 11 12 4 2 5 3 4 2 5 6 7 6 6 14 11 8 8 1 12 2 9 11 17 17 15
16 16 16 16 16 16 16 16 15 14 13 13 11 10 8 2 2 2 7 10 9 6 1 2 3 2 2 4 2 4 7 10 14 18 4 7 7 6 6 8 15 13 19 14 14
17 17 17 17 17 17 16 16 15 14 11 11 8 8 3 2 7 6 10 9 6 6 5 3 3 2 3 4 6 4 7 8 13 3 8 7 9 7 7 7 16 18 18 14 12
18 18 18 18 18 17 17 16 15 13 10 9 7 6 2 3 3 9 9 7 5 5 4 5 6 3 5 4 1 6 13 11 2 6 5 5 6 5 1 14 20 19 18 15 16
19 19 19 19 19 18 17 18 16 13 9 6 5 4 1 11 5 8 10 7 6 6 4 4 4 3 3 9 2 8 6 9 2 2 4 3 4 8 9 13 18 11 6 5 15
19 20 20 20 21 20 19 19 19 12 6 2 3 3 8 4 8 6 4 2 4 6 4 8 8 5 4 3 9 6 5 4 8 4 5 6 5 0 8 15 15 15 9 13 20
20 21 21 21 21 20 20 22 17 4 4 2 1 1 9 1 4 6 5 5 4 5 5 12 4 3 3 3 6 6 3 6 10 4 4 3 2 8 14 16 13 10 12 7 15
21 21 21 22 21 20 22 14 6 7 3 4 5 3 5 6 4 9 7 5 5 5 3 1 4 1 4 5 5 5 2 6 8 6 5 1 8 6 15 15 14 10 14 17 22
21 21 22 23 22 18 12 2 5 4 1 7 4 4 7 6 5 6 8 4 2 4 2 3 3 8 9 9 7 5 4 8 7 9 1 4 3 2 13 15 14 8 7 12 7
22 22 24 25 24 21 1 3 3 6 10 10 17 14 18 8 5 6 8 6 5 5 2 5 8 13 5 8 8 8 7 6 8 7 4 8 7 12 3 7 14 14 7 5 4
22 22 24 27 28 3 3 5 8 3 2 10 8 8 8 9 9 9 12 6 4 5 5 7 10 3 6 10 7 6 4 6 6 4 1 6 5 7 2 5 9 10 9 9 11
21 22 22 29 3 6 6 11 10 4 4 10 6 10 6 8 6 9 14 8 4 11 8 8 15 15 13 7 5 5 10 5 6 4 2 6 5 2 5 6 11 13 14 15 12
22 20 19 11 5 4 6 14 8 6 3 3 5 2 8 11 4 7 11 4 9 7 7 10 4 3 5 10 6 10 6 7 4 3 2 4 5 7 4 9 13 19 13 14 18
23 21 18 2 2 8 9 11 6 6 8 5 4 6 8 5 5 4 7 3 6 4 7 9 8 4 8 12 9 4 2 6 6 3 5 5 6 6 6 7 5 3 8 12 15
27 25 9 3 6 3 7 5 6 4 6 3 2 4 6 7 8 5 7 7 7 4 5 7 11 10 8 7 4 6 7 4 6 6 7 3 2 9 5 1 6 10 7 5 5
29 26 5 7 5 3 4 7 4 6 7 5 7 5 4 5 6 5 8 7 7 3 3 3 10 10 4 11 9 5 9 8 6 3 6 4 3 6 3 10 4 6 6 10 8
25 3 3 6 9 2 6 3 9 6 4 8 8 0 5 6 5 8 10 14 13 12 10 6 10 3 4 5 9 5 3 8 7 2 3 3 1 7 8 13 5 9 9 8 6
3 4 5 5 9 5 5 6 5 2 6 5 1 3 6 8 1 5 7 10 13 18 8 9 6 14 19 5 5 12 5 4 4 2 4 5 2 5 6 2 6 4 4 5 5
2 4 5 10 5 6 4 7 5 4 8 7 4 5 2 1 2 2 6 8 18 15 16 7 6 20 3 4 6 3 1 4 6 7 6 2 7 7 11 10 11 6 7 3 8
4 2 4 7 5 2 2 3 7 5 7 7 5 6 6 1 2 4 4 1 11 19 12 14 8 8 13 5 6 9 10 7 7 7 3 5 6 2 4 10 12 9 11 9 7
3 4 5 5 3 2 6 6 6 11 8 6 6 2 5 1 3 3 5 8 8 4 8 8 4 1 11 8 7 3 6 4 5 5 6 7 7 3 2 9 3 9 10 6 8
2 4 6 4 1 3 3 5 5 7 9 11 10 5 5 3 4 6 6 9 15 9 6 9 4 10 10 8 3 5 7 2 7 5 5 7 5 4 4 10 8 6 3 7 7
2 2 1 4 5 6 1 4 7 7 5 2 8 6 7 3 5 6 6 8 7 4 6 4 2 4 6 3 1 2 5 7 2 5 7 8 14 17 15 10 8 8 11 10 13
3 4 6 4 5 6 2 4 4 8 5 9 3 14 7 7 9 8 6 2 7 7 6 4 3 1 4 4 5 3 10 2 14 18 4 9 2 8 8 9 8 8 15 18 12
4 4 4 5 6 3 2 8 9 11 6 7 11 8 7 10 8 9 7 5 5 4 4 3 3 4 3 4 4 4 4 3 3 2 7 5 10 12 8 11 15 13 13 19 12
Wind_Direction
2 359 354 355 349 345 347 346 343 344 342 334 331 324 327 319 300 176 232 215 175 173 164 164 219 238 351 274 231 93 74 210 228 180 193 130 153 199 208 156 259 191 161 151 158
358 354 352 350 346 345 344 341 341 344 343 336 333 327 333 327 288 243 241 201 198 151 159 190 206 195 257 231 245 106 123 221 222 210 187 166 183 176 187 143 274 140 90 139 136
356 351 348 346 342 340 339 338 340 343 344 336 330 322 327 314 279 244 176 182 151 167 198 228 272 198 202 174 230 193 216 194 245 247 249 191 258 268 136 184 212 172 145 153 136
353 348 345 345 339 336 334 334 337 340 339 334 329 323 326 262 187 53 121 146 139 161 144 260 261 220 237 231 204 277 253 250 255 251 220 190 168 230 157 200 180 152 147 154 148
352 346 342 342 337 333 332 328 327 333 332 335 326 325 306 338 249 134 114 123 121 151 183 181 254 181 253 292 342 240 278 306 275 272 285 161 165 208 223 139 134 141 148 157 157
351 343 339 338 332 332 327 320 316 321 323 331 324 325 306 282 120 140 133 138 157 167 195 182 231 206 278 279 124 293 306 294 10 31 26 165 161 127 229 118 146 151 159 165 168
350 341 338 334 329 329 324 313 309 308 307 317 322 289 272 240 153 148 138 172 181 179 192 234 256 135 4 324 321 276 307 323 259 178 213 119 161 191 110 139 143 115 72 317 181
348 339 335 330 325 327 319 308 307 294 275 285 328 290 257 292 134 147 182 198 214 228 229 262 270 218 163 289 339 339 35 2 262 190 158 93 257 3 115 110 95 88 60 45 338
347 336 331 327 326 324 318 311 303 245 194 189 287 276 272 37 189 197 157 189 199 249 264 272 42 205 338 70 358 2 249 259 308 134 172 145 177 130 112 122 121 126 103 18 294
343 334 331 327 326 326 319 313 80 123 187 200 258 327 268 232 188 171 219 182 183 188 344 2 48 34 24 79 216 201 175 291 267 295 72 122 251 240 130 150 143 134 147 169 214
337 334 330 328 325 325 341 355 360 359 137 209 197 267 285 263 141 170 198 147 218 89 181 296 75 233 213 206 244 269 214 232 265 260 355 220 284 156 129 127 133 162 202 198 170
337 336 332 327 323 323 166 25 227 210 302 246 248 248 257 272 304 186 144 156 150 193 210 349 248 239 228 241 238 260 266 244 280 255 144 271 301 74 58 134 157 167 189 252 158
340 336 333 326 319 330 259 253 306 39 293 287 219 207 211 161 222 206 152 174 156 195 207 192 242 330 215 267 270 266 238 276 268 316 239 27 318 120 70 139 175 210 139 198 186
338 336 333 327 14 326 291 322 328 82 27 273 226 247 180 147 251 185 180 147 223 205 223 239 255 253 272 242 223 247 253 249 286 35 230 119 259 134 172 156 189 211 189 196 193
334 334 330 327 296 322 306 326 320 57 351 247 199 179 158 152 156 225 169 122 190 201 134 244 275 262 260 252 217 235 256 255 246 205 66 313 82 269 148 208 206 199 174 212 225
331 327 334 108 240 244 317 311 48 45 254 314 160 169 106 211 235 93 149 91 181 215 255 247 273 250 248 273 240 249 280 47 35 64 16 255 142 270 193 205 210 159 223 149 138
326 317 313 289 236 321 325 40 52 163 318 289 264 162 172 186 218 135 151 181 178 165 273 320 282 280 255 273 306 89 59 353 354 7 226 335 65 244 272 353 227 195 202 139 187
322 312 242 207 246 301 38 57 182 233 262 315 355 318 189 170 234 173 146 187 250 147 109 196 315 233 246 207 190 194 151 155 199 210 260 324 258 263 249 273 167 154 158 98 114
320 320 242 245 202 84 80 121 208 219 315 356 334 352 263 235 173 189 177 201 208 180 173 177 259 262 282 298 160 239 175 197 139 76 53 251 256 322 342 23 64 118 106 119 141
313 323 258 153 139 87 82 225 238 274 2 360 311 49 15 338 173 161 199 204 214 203 168 222 278 273 278 299 263 156 168 64 17 183 286 315 214 204 238 159 102 58 152 161 136
8 347 269 130 87 56 172 234 289 314 11 3 327 284 248 318 299 207 221 265 211 209 188 167 149 269 71 194 221 70 232 66 117 137 166 212 267 222 204 156 143 110 133 333 24
338 14 308 115 77 181 212 240 328 324 330 289 259 239 230 21 300 317 240 286 307 218 159 201 167 232 243 242 196 189 210 155 127 256 181 150 262 307 155 134 109 139 141 134 144
340 273 302 80 129 258 279 262 247 277 270 274 322 331 320 142 320 233 297 298 330 296 191 179 212 292 324 348 348 183 190 171 106 79 199 140 247 17 117 100 67 74 90 102 140
25 12 336 15 27 124 324 278 273 278 285 246 259 283 270 297 181 274 287 302 331 324 331 92 127 168 194 207 181 333 316 242 132 118 208 210 179 240 250 140 130 122 82 139 103
60 326 34 331 337 332 282 278 282 297 251 9 318 214 234 261 332 272 284 311 311 330 357 71 147 157 161 205 154 278 298 2 326 240 153 220 170 197 195 152 180 127 144 147 169
57 27 343 290 301 349 311 260 266 301 240 292 295 303 238 192 187 272 295 258 266 333 15 12 275 83 350 26 38 14 325 348 331 307 203 123 249 181 115 142 125 160 164 168 170
322 341 111 284 324 345 333 349 343 4 308 326 311 279 297 262 202 205 208 224 232 317 329 52 113 70 282 352 28 18 265 224 242 293 195 161 207 151 136 149 159 173 190 174 169